[[{"header":{"parameterUnit":"m.s-1","parameterCategory":1,"la1":30.2991,"la2":30.254,"lo1":-89.0895,"lo2":-89.0444,"dy":0.0017,"dx":0.0017,"nx":28,"ny":28,"refTime":"2024-05-30T21:00:00:Z","depth":0,"parameterNumber":2,"parameterNumberName":"U-component_of_WINDS"},"data":[0,0,0,0,0,0,0,0,0,0,0,0,0,0,0,0,0,0,0,0,0,0,0,0,0,0,0,0,0,0,0,0,0,0,0,0,0,0,0,0,0,0,0,0,0,0,0,0,0,0,0,0,0,0,0,0,0,0,-4.9557,-4.9557,0,-4.9542,-4.9542,-4.9541,-4.945,-4.9448,-4.9445,-4.9443,-4.9428,-4.9429,-4.9431,0,0,0,0,0,0,0,0,0,0,0,0,0,-4.9509,-4.9511,-4.9557,-4.9557,-4.9557,-4.9542,-4.9542,-4.9541,-4.945,-4.9448,-4.9445,-4.9442,-4.9427,-4.9429,-4.9431,0,0,0,0,0,0,0,0,0,0,0,0,0,-4.9516,-4.9511,-4.9557,-4.9509,-4.9505,-4.9542,-4.9542,-4.9541,-4.9451,-4.9448,-4.9444,-4.9441,-4.9427,-4.9429,-4.9431,-4.9513,0,0,-4.9439,-4.944,0,0,0,0,0,0,0,0,-4.9515,-4.9518,-4.9517,-4.9513,-4.9508,-4.9494,-4.9519,-4.9532,-4.9452,-4.9471,-4.9443,-4.9439,-4.9453,-4.9453,-4.9457,-4.9512,-4.9511,-4.9439,-4.9441,-4.9442,-4.9442,0,0,0,0,0,0,0,-4.9515,-4.9518,-4.9551,-4.9517,-4.9511,-4.949,-4.9487,-4.9521,-4.9481,-4.9469,-4.9463,-4.9462,-4.945,-4.9455,-4.9456,-4.9511,-4.9439,-4.9441,-4.9443,-4.9444,-4.9634,-4.9637,0,0,0,0,0,0,-4.9521,-4.9518,-4.9551,-4.955,-4.9504,-4.9493,-4.949,-4.9502,-4.948,-4.9474,-4.9465,-4.9458,-4.9452,-4.9453,-4.9455,-4.9548,-4.9442,-4.9444,-4.9445,-4.963,-4.9635,-4.9639,0,0,0,0,0,0,-4.9521,-4.9525,-4.9552,-4.9532,-4.9534,-4.9497,-4.9512,-4.9503,-4.9508,-4.9477,-4.9469,-4.9478,-4.945,-4.9452,-4.9499,-4.9547,-4.9445,-4.9447,-4.9626,-4.9632,-4.9637,-4.9736,0,0,0,0,0,0,-4.952,-4.9525,-4.9555,-4.9534,-4.9536,-4.9596,-4.9515,-4.9506,-4.9513,-4.9504,-4.9487,-4.9481,-4.9447,-4.9496,-4.9502,-4.9548,-4.9449,-4.9622,-4.9629,-4.9635,-4.9729,-4.9745,-4.9758,0,0,0,0,0,-4.9518,-4.9583,-4.9557,-4.9561,-4.9572,-4.9599,-4.96,-4.956,-4.9517,-4.9547,-4.9527,-4.9481,-4.9542,-4.9502,-4.9508,-4.9555,-4.9618,-4.9627,-4.9634,-4.9722,-4.9741,-4.9758,0,0,0,0,0,0,-4.9609,-4.9579,-4.955,-4.961,-4.9608,-4.9583,-4.9619,-4.9582,-4.9591,-4.9582,-4.9533,-4.953,-4.9585,-4.9576,-4.9532,-4.9634,-4.9572,-4.9582,-4.9637,-4.9655,-4.967,-4.9669,-4.9451,0,0,0,0,0,-4.9637,-4.9661,-4.9634,-4.969,-4.969,-4.9656,-4.9666,-4.9636,-4.9632,-4.963,-4.9613,-4.9611,-4.963,-4.9643,-4.9658,-4.9729,-4.9724,-4.9765,-4.978,-4.9792,-4.9799,-4.9836,-4.9854,-4.9665,-4.9665,-4.9665,0,0,-4.9693,-4.968,-4.9698,-4.9708,-4.9702,-4.9729,-4.9655,-4.9686,-4.9705,-4.9635,-4.9678,-4.9667,-4.9661,-4.9721,-4.9747,-4.9715,-4.9852,-4.9802,-4.9812,-4.9813,-4.9847,-4.9865,-4.988,-4.967,-4.9669,-4.9669,0,0,-4.9808,-4.9801,-4.9847,-4.9844,-4.9838,-4.9815,-4.9827,-4.9809,-4.9799,-4.9842,-4.979,-4.9814,-4.9847,-4.9845,-4.9848,-4.9969,-4.9927,-4.9976,-5.0051,-5.0088,-5.0103,-5.0115,-5.0157,-5.0172,-4.9984,-4.9985,-4.9985,0,-4.9878,-4.9915,-4.9875,-4.991,-4.9916,-4.9856,-4.9902,-4.9902,-4.9901,-4.9907,-4.9872,-4.9914,-4.9906,-4.9964,-4.9994,-5.0,-5.0011,-4.9975,-5.0104,-5.0116,-5.0128,-5.0167,-5.0183,-4.999,-4.999,-4.9989,-4.9989,0,-5.0001,-5.0029,-5.0067,-5.0068,-5.008,-5.012,-5.0087,-5.0104,-5.0075,-5.0056,-5.0103,-5.0092,-5.0104,-5.0117,-5.0089,-5.0173,-5.0153,-5.0113,-5.0048,-5.0152,-5.0188,-5.0203,-4.9999,-4.9997,-4.9995,-4.9994,0,0,-5.0167,-5.015,-5.0164,-5.0165,-5.0156,-5.0177,-5.0217,-5.0229,-5.0244,-5.0248,-5.0279,-5.0311,-5.0273,-5.0278,-5.0249,-5.0282,-5.0377,-5.0237,-5.0236,-5.0261,-5.0468,-5.0497,-5.0515,-5.0352,-5.0354,-5.0357,-5.0468,0,-5.0276,-5.034,-5.0308,-5.0377,-5.0402,-5.0348,-5.0383,-5.0382,-5.0367,-5.0387,-5.0371,-5.0393,-5.0343,-5.0346,-5.0376,-5.0359,-5.0418,-5.0351,-5.0379,-5.038,-5.0378,-5.0533,-5.0563,-5.0668,-5.0482,-5.0484,-5.0486,0,-5.0409,-5.042,-5.0492,-5.048,-5.049,-5.0521,-5.0531,-5.0552,-5.055,-5.0538,-5.0545,-5.051,-5.0549,-5.049,-5.0542,-5.0498,-5.0508,-5.0502,-5.0506,-5.0503,-5.0436,-5.0533,-5.0701,-5.0716,-5.0508,-5.0506,-5.0505,0,-5.0521,-5.0553,-5.06,-5.0603,-5.0592,-5.0615,-5.0612,-5.0608,-5.0618,-5.0629,-5.0635,-5.065,-5.0657,-5.067,-5.064,-5.06,-5.0697,-5.0635,-5.0686,-5.0687,-5.0705,-5.0704,-5.0875,-5.0718,-5.0718,-5.0718,-5.0717,0,-5.0643,-5.0689,-5.0651,-5.0679,-5.073,-5.0694,-5.0745,-5.0735,-5.0733,-5.0759,-5.0716,-5.0741,-5.0702,-5.0725,-5.0703,-5.0749,-5.0754,-5.0744,-5.0736,-5.0746,-5.0747,-5.0749,-5.0739,-5.0722,-5.0721,-5.072,-5.0719,0,-5.0774,-5.0751,-5.0798,-5.0786,-5.0784,-5.0821,-5.081,-5.0836,-5.0821,-5.0855,-5.0861,-5.0836,-5.0861,-5.0834,-5.0856,-5.0842,-5.0904,-5.0888,-5.0904,-5.0898,-5.095,-5.0944,-5.1125,-5.1146,-5.0979,-5.0981,-5.0982,0,-5.0852,-5.0886,-5.0878,-5.0893,-5.0892,-5.0917,-5.0928,-5.0896,-5.091,-5.0913,-5.094,-5.0961,-5.0975,-5.1017,-5.1001,-5.1019,-5.1001,-5.1063,-5.1002,-5.1011,-5.0999,-5.0996,-5.0999,-5.1074,-5.1076,-5.1078,-5.1079,0,-5.0992,-5.098,-5.0998,-5.1014,-5.1029,-5.104,-5.1047,-5.1062,-5.1028,-5.1047,-5.1071,-5.1083,-5.1108,-5.1129,-5.1142,-5.1139,-5.1103,-5.1099,-5.1111,-5.1119,-5.1126,-5.1121,-5.0934,-5.1094,-5.1092,-5.1091,-5.109,-5.109,-5.1096,-5.1125,-5.1124,-5.1147,-5.115,-5.1158,-5.1183,-5.1172,-5.1192,-5.1209,-5.119,-5.1221,-5.1221,-5.1236,-5.1237,-5.1261,-5.1234,-5.1253,-5.1256,-5.1261,-5.1267,-5.1126,-5.1264,-5.1263,-5.1263,-5.1262,-5.1262,0,-5.1232,-5.1231,-5.1252,-5.1264,-5.1283,-5.1251,-5.1258,-5.1276,-5.1303,-5.1308,-5.1324,-5.1354,-5.1375,-5.1363,-5.1382,-5.1403,-5.1387,-5.1409,-5.1405,-5.1405,-5.1291,-5.1277,-5.1421,-5.1421,-5.1421,-5.1421,-5.1421,-5.1421,-5.1305,-5.1351,-5.134,-5.1388,-5.1385,-5.1416,-5.1423,-5.1431,-5.1434,-5.1469,-5.1487,-5.148,-5.1478,-5.1496,-5.1515,-5.1511,-5.1519,-5.1546,-5.1536,-5.1429,-5.1413,-5.1398,-5.1384,-5.1548,-5.1548,-5.1647,-5.1647,-5.1648]},{"header":{"parameterUnit":"m.s-1","parameterCategory":1,"la1":30.2991,"la2":30.254,"lo1":-89.0895,"lo2":-89.0444,"dy":0.0017,"dx":0.0017,"nx":28,"ny":28,"refTime":"2024-05-30T21:00:00:Z","depth":0,"parameterNumber":3,"parameterNumberName":"V-component_of_WINDS"},"data":[0,0,0,0,0,0,0,0,0,0,0,0,0,0,0,0,0,0,0,0,0,0,0,0,0,0,0,0,0,0,0,0,0,0,0,0,0,0,0,0,0,0,0,0,0,0,0,0,0,0,0,0,0,0,0,0,0,0,4.0709,4.071,0,4.0745,4.0746,4.0746,4.0771,4.0772,4.0772,4.0772,4.0805,4.0805,4.0806,0,0,0,0,0,0,0,0,0,0,0,0,0,4.066,4.0661,4.0709,4.071,4.071,4.0745,4.0746,4.0746,4.0771,4.0772,4.0772,4.0772,4.0804,4.0805,4.0806,0,0,0,0,0,0,0,0,0,0,0,0,0,4.0687,4.0661,4.0709,4.0727,4.0729,4.0745,4.0746,4.0746,4.0771,4.0772,4.0772,4.0772,4.0804,4.0805,4.0806,4.0806,0,0,4.0809,4.0809,0,0,0,0,0,0,0,0,4.0686,4.0689,4.0724,4.0726,4.0728,4.0754,4.074,4.0766,4.0771,4.0755,4.0772,4.0772,4.0787,4.079,4.0796,4.0807,4.0808,4.0809,4.081,4.081,4.081,0,0,0,0,0,0,0,4.0684,4.0688,4.0723,4.0724,4.0727,4.0733,4.0737,4.0745,4.0769,4.0757,4.0759,4.0763,4.0788,4.0794,4.0796,4.0809,4.0809,4.081,4.0811,4.0811,4.0824,4.0824,0,0,0,0,0,0,4.068,4.0686,4.0722,4.0724,4.0707,4.0733,4.0738,4.0745,4.0769,4.0773,4.0762,4.0764,4.0793,4.0795,4.0798,4.08,4.081,4.0811,4.0812,4.0824,4.0824,4.0824,0,0,0,0,0,0,4.0678,4.0683,4.0721,4.0706,4.0711,4.0734,4.0742,4.0746,4.0752,4.0773,4.0777,4.0764,4.0793,4.0796,4.0804,4.0802,4.0812,4.0812,4.0825,4.0824,4.0824,4.0804,0,0,0,0,0,0,4.0677,4.0682,4.0682,4.0706,4.0712,4.0727,4.0742,4.0746,4.0754,4.0756,4.0776,4.078,4.0794,4.0803,4.0805,4.0803,4.0813,4.0825,4.0825,4.0824,4.0805,4.0803,4.0801,0,0,0,0,0,4.0675,4.0674,4.0682,4.0686,4.0713,4.0727,4.073,4.0747,4.0754,4.0754,4.0768,4.0779,4.0802,4.0803,4.0806,4.0804,4.0825,4.0825,4.0824,4.0806,4.0803,4.0801,0,0,0,0,0,0,4.0647,4.0677,4.0687,4.0693,4.0708,4.0731,4.0732,4.0744,4.0756,4.0757,4.0776,4.0781,4.0787,4.0796,4.0798,4.0806,4.0815,4.0815,4.08,4.0798,4.0796,4.0793,4.0814,0,0,0,0,0,4.0642,4.0652,4.0677,4.068,4.0688,4.0709,4.0715,4.0728,4.0743,4.0748,4.0763,4.0776,4.0787,4.0793,4.0803,4.0807,4.0812,4.0807,4.0805,4.0804,4.0803,4.0808,4.0806,4.0822,4.0822,4.0822,0,0,4.0631,4.0649,4.0653,4.0675,4.0688,4.0698,4.0713,4.0722,4.0729,4.0749,4.0759,4.077,4.0786,4.0792,4.0796,4.08,4.08,4.0803,4.0802,4.0802,4.0807,4.0805,4.0804,4.0822,4.0822,4.0822,0,0,4.0616,4.063,4.0635,4.0649,4.0669,4.0683,4.0684,4.0707,4.0716,4.0726,4.0742,4.075,4.0767,4.0779,4.0787,4.078,4.079,4.0782,4.0772,4.0776,4.0775,4.0774,4.0772,4.0771,4.0782,4.0782,4.0782,0,4.0599,4.0615,4.0636,4.0645,4.0654,4.0676,4.0681,4.0693,4.0714,4.072,4.0726,4.0749,4.0761,4.0772,4.077,4.0776,4.0778,4.078,4.0774,4.0773,4.0772,4.0771,4.077,4.0781,4.0781,4.0781,4.0781,0,4.0594,4.0605,4.0607,4.063,4.064,4.0646,4.0668,4.0676,4.0688,4.0702,4.0712,4.0729,4.0744,4.0747,4.0758,4.0759,4.0762,4.077,4.0779,4.0769,4.0768,4.0768,4.0779,4.078,4.078,4.078,0,0,4.0559,4.0597,4.0597,4.0609,4.0634,4.0642,4.0651,4.0668,4.0674,4.0689,4.0697,4.0712,4.0721,4.073,4.0743,4.0746,4.0741,4.0755,4.0755,4.0752,4.0745,4.0738,4.0737,4.0749,4.0749,4.0749,4.0744,0,4.0548,4.0566,4.0587,4.0597,4.0608,4.063,4.0638,4.0654,4.0668,4.0679,4.0693,4.0705,4.0715,4.0721,4.0726,4.0741,4.074,4.0741,4.0756,4.0756,4.0751,4.0737,4.0729,4.0724,4.0743,4.0743,4.0743,0,4.0537,4.0554,4.0566,4.0593,4.0598,4.0605,4.0623,4.0633,4.0652,4.0662,4.0674,4.0689,4.0699,4.0707,4.0722,4.0722,4.0729,4.0738,4.0738,4.074,4.0749,4.0738,4.0722,4.0721,4.0742,4.0743,4.0743,0,4.0512,4.0537,4.0548,4.0558,4.0589,4.0593,4.0606,4.0626,4.0635,4.0651,4.0658,4.0674,4.0682,4.0694,4.0712,4.0717,4.0725,4.0735,4.0733,4.0733,4.0733,4.0733,4.0718,4.0738,4.0738,4.0738,4.0738,0,4.0497,4.0504,4.0538,4.0545,4.0553,4.0577,4.0585,4.06,4.0617,4.0627,4.0647,4.0655,4.0679,4.0691,4.0705,4.0715,4.0719,4.0727,4.073,4.0725,4.0724,4.073,4.073,4.0738,4.0738,4.0738,4.0738,0,4.0469,4.0493,4.0507,4.0537,4.0544,4.0549,4.0574,4.0582,4.0598,4.061,4.0615,4.064,4.0654,4.0675,4.0694,4.0704,4.0713,4.0718,4.0707,4.0709,4.0707,4.0707,4.0695,4.0695,4.0714,4.0714,4.0714,0,4.0458,4.0465,4.0496,4.0505,4.0519,4.0532,4.0543,4.0568,4.0578,4.0602,4.0607,4.0623,4.0638,4.0661,4.068,4.0696,4.0702,4.0697,4.0704,4.0699,4.0703,4.0702,4.0703,4.0695,4.0694,4.0694,4.0694,0,4.0436,4.0449,4.0464,4.0485,4.0499,4.0515,4.0533,4.0539,4.0567,4.0577,4.0594,4.0606,4.0628,4.0645,4.0664,4.0676,4.069,4.0692,4.0693,4.0687,4.068,4.0685,4.0702,4.0692,4.0692,4.0692,4.0692,4.0692,4.0417,4.0425,4.0449,4.0467,4.0483,4.05,4.0509,4.0528,4.0543,4.0565,4.0578,4.0594,4.0615,4.0643,4.0655,4.0667,4.0673,4.0673,4.0673,4.0673,4.0672,4.0679,4.0671,4.0671,4.0671,4.0671,4.0671,0,4.0397,4.0415,4.0431,4.0457,4.0471,4.0485,4.0506,4.0516,4.0531,4.055,4.0566,4.0586,4.0602,4.0624,4.0642,4.0649,4.0655,4.0652,4.0652,4.0655,4.0666,4.0664,4.0647,4.0647,4.0647,4.0647,4.0647,4.0647,4.0388,4.0402,4.0418,4.044,4.0458,4.0476,4.0487,4.0502,4.0518,4.054,4.0555,4.0571,4.0591,4.0611,4.0627,4.0633,4.0639,4.0635,4.0642,4.0652,4.0654,4.0656,4.0654,4.0636,4.0636,4.0631,4.0631,4.0631]}]]